TimeMST,TemperatureF,Dew PointF,Humidity,Sea Level PressureIn,VisibilityMPH,Wind Direction,Wind SpeedMPH,Gust SpeedMPH,PrecipitationIn,Events,Conditions,WindDirDegrees,DateUTC
12:53 AM,42.1,28.9,60,29.75,10.0,SSE,5.8,-,N/A,,Clear,160,2013-11-15 07:53:00
1:53 AM,39.0,28.9,67,29.73,10.0,ESE,4.6,-,N/A,,Clear,120,2013-11-15 08:53:00
2:53 AM,37.0,28.0,70,29.71,10.0,ESE,5.8,-,N/A,,Clear,110,2013-11-15 09:53:00
3:53 AM,33.1,25.0,72,29.71,10.0,WSW,3.5,-,N/A,,Clear,250,2013-11-15 10:53:00
4:53 AM,32.0,24.1,73,29.72,10.0,West,9.2,-,N/A,,Clear,270,2013-11-15 11:53:00
5:53 AM,28.0,21.9,78,29.74,10.0,WNW,9.2,-,N/A,,Clear,290,2013-11-15 12:53:00
6:53 AM,28.0,23.0,81,29.75,10.0,West,10.4,-,N/A,,Clear,270,2013-11-15 13:53:00
7:53 AM,33.1,25.0,72,29.74,10.0,West,11.5,-,N/A,,Clear,270,2013-11-15 14:53:00
8:53 AM,39.9,27.0,60,29.70,10.0,SW,9.2,-,N/A,,Clear,230,2013-11-15 15:53:00
9:53 AM,46.9,28.9,50,29.68,10.0,SW,5.8,-,N/A,,Clear,220,2013-11-15 16:53:00
10:53 AM,57.9,24.1,27,29.61,10.0,Calm,Calm,-,N/A,,Clear,0,2013-11-15 17:53:00
11:53 AM,63.0,21.0,20,29.56,10.0,WSW,8.1,-,N/A,,Clear,250,2013-11-15 18:53:00
12:53 PM,66.0,18.0,16,29.51,10.0,WSW,5.8,-,N/A,,Clear,240,2013-11-15 19:53:00
1:53 PM,68.0,18.0,15,29.48,10.0,Calm,Calm,-,N/A,,Clear,0,2013-11-15 20:53:00
2:53 PM,66.9,17.1,15,29.47,10.0,WNW,9.2,-,N/A,,Clear,300,2013-11-15 21:53:00
3:53 PM,63.0,17.1,17,29.47,10.0,WSW,9.2,-,N/A,,Clear,240,2013-11-15 22:53:00
4:53 PM,62.1,18.0,18,29.46,10.0,WSW,12.7,-,N/A,,Clear,240,2013-11-15 23:53:00
5:53 PM,59.0,16.0,19,29.49,10.0,WSW,13.8,-,N/A,,Clear,240,2013-11-16 00:53:00
6:53 PM,55.0,17.1,23,29.49,10.0,WSW,15.0,-,N/A,,Clear,240,2013-11-16 01:53:00
7:53 PM,53.1,21.9,30,29.49,10.0,WSW,15.0,-,N/A,,Clear,250,2013-11-16 02:53:00
8:53 PM,53.1,25.0,34,29.46,10.0,WSW,15.0,-,N/A,,Clear,250,2013-11-16 03:53:00
9:53 PM,52.0,28.9,41,29.43,10.0,WSW,15.0,-,N/A,,Clear,240,2013-11-16 04:53:00
10:53 PM,48.9,28.9,46,29.42,10.0,WSW,16.1,-,N/A,,Clear,240,2013-11-16 05:53:00
11:53 PM,50.0,30.0,46,29.39,10.0,WSW,16.1,-,N/A,,Clear,240,2013-11-16 06:53:00